Showing default

SDA_1677, 65987

Orbit data source: Space-Track

SDA_1677, 65987 is a payload satellite owned by SDA (US) in LEO that was launched on Wed, 15 Oct 2025 UTC via an FALCON 9 launch vehicle from the Air Force Western Test Range (AFWTR). Payload-class satellites include a variety of spacecraft equipped with specific instruments for various scientific and technological missions. These include communications satellites like Starlink; space stations such as the ISS; scientific satellites like the Hubble; Earth observation satellites from companies like Planet Labs, Umbra, and HawkEye 360; GPS; miniature CubeSats for education and research; and military/defense satellites.

Loading next visibility...
Identifier
65987, 2025-230P
Orbit
LEO
Country
Flag of USUS
Related business
Manufacturer
LMSSD/TERRAN
Mission
Operational Defense Communications
Bus & Motor
LM-T1TL, Unknown motor
Mass
~400 kg wet, ~400 kg dry
Launch date (UTC)
2025-10-15 (8 months ago)
Launch vehicle
FALCON 9
Launch site
Air Force Western Test Range (AFWTR)
Object type
Payload
Rocket body
Debris
Shape & HBR
Box + 2 Pan, 14.5 m
Radar Cross Section
0.674 m², Large (>1 m²)

Expand to show TLE details & history
Last TLE update: 16 hours ago

TLE from 16 hours ago
0 SDA_1677
1 65987U 25230P   26171.18501639  .00000111  00000-0  98124-4 0  9998
2 65987  81.2989 209.7034 0001933 116.9655 243.1696 13.78579174 34176
Epoch: 2026-06-20T04:26Z
TLE epoch observation values (Epoch: 2026-06-20T04:26:25.416Z)
Latitude
-0.00001°
Longitude
-125.30577°
Altitude
972.43 km
Speed
7.365 km/s
True Right ascension
13h 58m 48s
True Declination
0° 00' 00"
Sunlit
Object was in daylight at epoch
Visualization orbit readout
Latitude
Unknown
Longitude
Unknown
Altitude
Unknown
Speed
Unknown
Apparent Right ascension
Unknown
Apparent Declination
Unknown
Sunlit
N/A
Visualization observer readout
Local Sidereal Time
07:13:25
Azimuth
Unknown
Elevation
Unknown
Doppler factor
Unknown
Orbital elements
Apogee altitude
967.564 km
Perigee altitude
964.725 km
Semi-major axis
7,344.281 km
Eccentricity
0.00019
Inclination
81.2989°
RAAN
209.7034°
Arg. of periapsis
116.9655°
True anomaly
243.14984°
Mean anomaly
243.1696°
Eccentric anomaly
243.15972°
Mean motion
3.44841 °/min
Orbital period
104.4 mins
BSTAR
0.000098124
Loading maneuver chart data...
Computing Atmospheric mass density...
Loading historical data...
Loading historical data...
Loading historical data...
Loading historical data...
Loading historical data...
Loading historical data...
Loading historical data...

Documentation

Showing up to 5 results
|